Regional Weather Roundup
Issued by NWS Kansas City/Pleasant Hill, MO

Home | Current Version | Previous Version | Graphics & Text | Print | Product List | Glossary Off
Versions: 1 2 3 4 5 6 7 8 9 10 11 12 13 14 15 16 17 18 19 20 21 22 23 24 25 26 27 28 29 30 31 32 33 34 35 36 37 38 39 40 41 42 43 44 45 46 47 48 49 50

000
ASUS43 KEAX 241910
RWREAX

WEATHER ROUNDUP FOR EASTERN KANSAS AND NORTHWEST MISSOURI
NATIONAL WEATHER SERVICE KANSAS CITY/PLEASANT HILL MO
200 PM CDT MON JUL 24 2017

KSZ040-057-103>105-MOZ028-029-037-043-242000-
...KANSAS CITY METROPOLITAN AREA...

CITY           SKY/WX    TMP DP  RH WIND       PRES   REMARKS
K.C. INTL      MOSUNNY   85  66  53 MISG      30.01F
K.C. DOWNTOWN  SUNNY     87  67  51 VRB5      29.99S HX  90
LEES SUMMIT    SUNNY     84  69  60 E5        30.01S
OLATHE - IXD   SUNNY     86  68  54 E6        30.01S
OLATHE - OJC   SUNNY     84  69  60 NE5       30.01S
LAWRENCE       SUNNY     87  70  56 CALM      29.99F HX  92

$$

MOZ001>008-011>017-020>025-030>033-038>040-044>046-053-054-242000-
...NORTHERN AND CENTRAL MISSOURI...

CITY           SKY/WX    TMP DP  RH WIND       PRES   REMARKS
ST. JOSEPH     SUNNY     84  66  54 CALM      30.00F
MOSBY          CLEAR     82  61  47 CALM      30.00F
WARRENSBURG    SUNNY     82  64  54 N6        30.00S
WHITEMAN AFB   MOSUNNY   84  66  54 E3        29.99S
CLINTON        SUNNY     86  70  58 NE5       29.99S HX  90
SEDALIA        SUNNY     86  70  58 VRB3      30.01S HX  90
WARSAW         NOT AVBL
CHILLICOTHE      N/A     82  66  58 NW5       30.02S
KIRKSVILLE     MOSUNNY   84  62  47 N8        30.02S

$$

MOZ041-047>049-056>058-063>065-088>090-097-242000-
...EASTERN AND SOUTHERN MISSOURI...

CITY           SKY/WX    TMP DP  RH WIND       PRES   REMARKS
ST. LOUIS INTL MOSUNNY   89  64  43 VRB6      29.98S HX  90
SPIRIT OF STL  MOSUNNY   89  64  43 NE6       29.96S HX  90
COLUMBIA       SUNNY     85  68  56 N9        29.99F
JEFFERSON CITY MOSUNNY   88  68  51 CALM      29.97S HX  91
ROLLA          MOSUNNY   89  67  47 CALM      29.98S HX  92
OSAGE BEACH    MOSUNNY   89  68  49 VRB5      29.99S HX  93
SPRINGFIELD    MOSUNNY   93  72  50 W6        29.99S HX 101
BRANSON        MOSUNNY   91  68  46 NW5       30.01F HX  95
JOPLIN         MOSUNNY   94  73  50 CALM      29.99F HX 103
WEST PLAINS    PTSUNNY   91  65  41 S7        29.99F HX  93

$$

IAZ060-094-KSZ022-034>040-054-083-096-NEZ052-066-093-242000-
...KANSAS...SOUTHEAST NEBRASKA AND IOWA...

CITY           SKY/WX    TMP DP  RH WIND       PRES   REMARKS
TOPEKA         SUNNY     87  71  58 E5        29.99F HX  93
MANHATTAN      SUNNY     91  72  53 VRB7      29.97F HX  98
EMPORIA        SUNNY     91  72  53 VRB3      29.98F HX  98
CHANUTE        MOSUNNY   92  72  51 SE7       29.99S HX  99
WICHITA        MOSUNNY   93  68  43 MISG      29.98S HX  97
OMAHA          MOSUNNY   84  63  49 SE9       29.99F
LINCOLN        SUNNY     85  66  53 SE10      29.99F
FALLS CITY     SUNNY     84  64  50 VRB3      30.00F
LAMONI         SUNNY     83  62  49 N6        30.02F
DES MOINES     MOSUNNY   82  60  47 VRB5      30.01S

$$




USA.gov is the U.S. government's official web portal to all federal, state and local government web resources and services.